CZ-4 DEB, 26121

Orbit data source: Space-Track

CZ-4 DEB, 26121 is space debris in SSO originally from a launch on Thu, 14 Oct 1999 UTC launched from the Taiyaun Space Center, China (TSC). Debris objects in space refer to the collection of defunct objects orbiting the Earth. Examples of debris include non-operational satellites, rocket bodies, and fragments generated from explosions, collisions, or faulty payload assembly.

Loading next visibility...
Identifier
26121, 1999-057H
Orbit
SSO
Country
Flag of CNCN / PRC
Related business
Manufacturer
Unknown
Mission
Spacecraft
Bus & Motor
Unknown
Mass
Unknown
Launch date (UTC)
1999-10-14 (26 years ago)
Launch vehicle
Unknown
Launch site
Taiyaun Space Center, China (TSC)
Object type
Payload
Rocket body
Debris
Shape & HBR
Unknown shape, 1.7 m
Radar Cross Section
Large (>1 m²)

Expand to show TLE details & history
Last TLE update: 19 hours ago

TLE from 19 hours ago
0 CZ-4 DEB
1 26121U 99057H   25350.14828105  .00009353  00000-0  39945-3 0  9999
2 26121  98.6892  52.4636 0036664 100.2641 260.2729 15.22544644398770
Epoch: 2025-12-16T03:33Z
TLE epoch observation values (Epoch: 2025-12-16T03:33:31.482Z)
Latitude
-0.00003°
Longitude
-85.95422°
Altitude
505.573 km
Speed
7.609 km/s
True Right ascension
03h 29m 51s
True Declination
0° 00' 00"
Sunlit
Object was in full shadow at epoch
Visualization orbit readout
Latitude
Unknown
Longitude
Unknown
Altitude
Unknown
Speed
Unknown
Apparent Right ascension
Unknown
Apparent Declination
Unknown
Sunlit
N/A
Visualization observer readout
Local Sidereal Time
21:39:33
Azimuth
Unknown
Elevation
Unknown
Doppler factor
Unknown
Orbital elements
Apogee altitude
520.391 km
Perigee altitude
469.99 km
Semi-major axis
6,873.327 km
Eccentricity
0.00367
Inclination
98.6892°
RAAN
52.4636°
Arg. of periapsis
100.2641°
True anomaly
259.85913°
Mean anomaly
260.2729°
Eccentric anomaly
260.06598°
Mean motion
3.80884 °/min
Orbital period
94.52 mins
BSTAR
0.00039945
Loading maneuver chart data...
Computing Atmospheric mass density...
Loading historical data...
Loading historical data...
Loading historical data...
Loading historical data...
Loading historical data...
Loading historical data...
Loading historical data...

Documentation

Showing up to 5 results
|